Meteo pe oră la Bolshie Toronkovichi

Astăzi, 6 Mai, Joi

Timp Temperatura Precipitaţii Vânt Presiune Umiditate
00:00 +9°C° 0.1 mm 2 m/s 728 mmHg 95%
01:00 +8°C° 0.1 mm 2 m/s 727 mmHg 95%
02:00 +8°C° 0 mm 2 m/s 726 mmHg 95%
03:00 +7°C° 0.5 mm 3 m/s 726 mmHg 95%
04:00 +7°C° 0.5 mm 3 m/s 726 mmHg 95%
05:00 +6°C° 0.5 mm 4 m/s 726 mmHg 96%
06:00 +5°C° 2.3 mm 4 m/s 726 mmHg 94%
07:00 +5°C° 2.3 mm 4 m/s 727 mmHg 93%
08:00 +5°C° 0 mm 4 m/s 727 mmHg 93%
09:00 +6°C° 0.4 mm 5 m/s 727 mmHg 87%
10:00 +7°C° 0.4 mm 5 m/s 728 mmHg 81%
11:00 +8°C° 0.4 mm 6 m/s 728 mmHg 75%
12:00 +8°C° 0.5 mm 7 m/s 729 mmHg 74%
13:00 +8°C° 0.5 mm 7 m/s 729 mmHg 73%
14:00 +7°C° 0.5 mm 8 m/s 730 mmHg 73%
15:00 +8°C° 0.3 mm 7 m/s 730 mmHg 73%
16:00 +6°C° 0.3 mm 7 m/s 731 mmHg 73%
17:00 +6°C° 0.3 mm 7 m/s 731 mmHg 72%
18:00 +5°C° 0 mm 6 m/s 731 mmHg 73%
19:00 +5°C° 0 mm 5 m/s 732 mmHg 73%
20:00 +3°C° 0 mm 5 m/s 732 mmHg 73%
21:00 +3°C° 0 mm 4 m/s 733 mmHg 77%
22:00 +3°C° 0 mm 4 m/s 733 mmHg 82%
23:00 +1°C° 0 mm 4 m/s 733 mmHg 86%

Mâine, 7 Mai, Vineri

Timp Temperatura Precipitaţii Vânt Presiune Umiditate
00:00 +1°C° 0 mm 4 m/s 733 mmHg 85%
01:00 +1°C° 0 mm 4 m/s 733 mmHg 85%
02:00 0°C° 0 mm 4 m/s 733 mmHg 84%
03:00 +1°C° 0 mm 4 m/s 733 mmHg 84%
04:00 +1°C° 0 mm 4 m/s 733 mmHg 84%
05:00 +1°C° 0 mm 4 m/s 733 mmHg 84%
06:00 +4°C° 0 mm 4 m/s 733 mmHg 80%
07:00 +5°C° 0 mm 4 m/s 733 mmHg 77%
08:00 +6°C° 0 mm 5 m/s 733 mmHg 73%
09:00 +7°C° 0.2 mm 5 m/s 733 mmHg 71%
10:00 +8°C° 0.2 mm 5 m/s 733 mmHg 69%
11:00 +8°C° 0.2 mm 6 m/s 733 mmHg 67%
12:00 +8°C° 0.2 mm 5 m/s 733 mmHg 70%
13:00 +8°C° 0.2 mm 4 m/s 733 mmHg 74%
14:00 +9°C° 0.2 mm 3 m/s 733 mmHg 77%
15:00 +8°C° 0.6 mm 3 m/s 732 mmHg 82%
16:00 +8°C° 0.6 mm 3 m/s 732 mmHg 87%
17:00 +7°C° 0.6 mm 3 m/s 731 mmHg 92%
18:00 +7°C° 1.3 mm 2 m/s 731 mmHg 93%
19:00 +7°C° 1.3 mm 2 m/s 730 mmHg 94%
20:00 +6°C° 1.3 mm 2 m/s 730 mmHg 95%
21:00 +7°C° 0.2 mm 2 m/s 729 mmHg 96%
22:00 +7°C° 0.2 mm 2 m/s 729 mmHg 96%
23:00 +7°C° 0.2 mm 3 m/s 729 mmHg 96%

Poimâine, 8 Mai, Sâmbătă

Timp Temperatura Precipitaţii Vânt Presiune Umiditate
00:00 +7°C° 0.1 mm 3 m/s 729 mmHg 97%
01:00 +7°C° 0.1 mm 2 m/s 729 mmHg 97%
02:00 +7°C° 0.1 mm 2 m/s 729 mmHg 97%
03:00 +6°C° 0.1 mm 2 m/s 729 mmHg 97%
04:00 +5°C° 0.1 mm 3 m/s 729 mmHg 97%
05:00 +4°C° 0.1 mm 3 m/s 729 mmHg 97%
06:00 +4°C° 0.4 mm 4 m/s 729 mmHg 97%
07:00 +3°C° 0.4 mm 4 m/s 730 mmHg 96%
08:00 +2°C° 0.4 mm 5 m/s 730 mmHg 96%
09:00 +1°C° 1.3 mm 5 m/s 731 mmHg 96%
10:00 -1°C° 1.3 mm 6 m/s 731 mmHg 96%
11:00 -1°C° 1.3 mm 6 m/s 732 mmHg 96%
12:00 0°C° 0.5 mm 7 m/s 733 mmHg 89%
13:00 +3°C° 0.5 mm 7 m/s 733 mmHg 83%
14:00 +4°C° 0.5 mm 7 m/s 734 mmHg 76%
15:00 +4°C° 0.1 mm 7 m/s 734 mmHg 73%
16:00 +5°C° 0.1 mm 6 m/s 734 mmHg 69%
17:00 +7°C° 0.1 mm 6 m/s 735 mmHg 66%
18:00 +5°C° 0.1 mm 5 m/s 735 mmHg 71%
19:00 +4°C° 0.1 mm 4 m/s 736 mmHg 77%
20:00 +3°C° 0.1 mm 4 m/s 736 mmHg 82%
21:00 +2°C° 0 mm 3 m/s 737 mmHg 86%
22:00 +2°C° 0 mm 3 m/s 737 mmHg 89%
23:00 +1°C° 0 mm 3 m/s 738 mmHg 92%

9 Mai, Duminică

Timp Temperatura Precipitaţii Vânt Presiune Umiditate
00:00 0°C° 0 mm 3 m/s 739 mmHg 91%
01:00 0°C° 0 mm 3 m/s 739 mmHg 90%
02:00 -1°C° 0 mm 3 m/s 740 mmHg 89%
03:00 -1°C° 0 mm 3 m/s 740 mmHg 89%
04:00 -1°C° 0 mm 3 m/s 741 mmHg 89%
05:00 -2°C° 0 mm 2 m/s 742 mmHg 88%
06:00 +1°C° 0 mm 2 m/s 742 mmHg 79%
07:00 +3°C° 0 mm 3 m/s 743 mmHg 70%
08:00 +5°C° 0 mm 3 m/s 744 mmHg 60%
09:00 +7°C° 0 mm 3 m/s 744 mmHg 54%
10:00 +8°C° 0 mm 3 m/s 744 mmHg 48%
11:00 +10°C° 0 mm 3 m/s 744 mmHg 42%
12:00 +11°C° 0 mm 3 m/s 745 mmHg 42%
13:00 +11°C° 0 mm 3 m/s 745 mmHg 41%
14:00 +12°C° 0 mm 3 m/s 745 mmHg 40%
15:00 +12°C° 0 mm 3 m/s 745 mmHg 44%
16:00 +12°C° 0 mm 3 m/s 745 mmHg 47%
17:00 +12°C° 0 mm 3 m/s 745 mmHg 51%
18:00 +10°C° 0 mm 3 m/s 745 mmHg 57%
19:00 +8°C° 0 mm 2 m/s 745 mmHg 64%
20:00 +7°C° 0 mm 2 m/s 746 mmHg 70%
21:00 +6°C° 0 mm 2 m/s 746 mmHg 72%
22:00 +5°C° 0 mm 2 m/s 746 mmHg 75%
23:00 +4°C° 0 mm 3 m/s 746 mmHg 78%

10 Mai, Luni

Timp Temperatura Precipitaţii Vânt Presiune Umiditate
00:00 +4°C° 0 mm 3 m/s 746 mmHg 77%
01:00 +4°C° 0 mm 3 m/s 747 mmHg 76%
02:00 +4°C° 0 mm 3 m/s 747 mmHg 75%
03:00 +4°C° 0 mm 3 m/s 747 mmHg 76%
04:00 +4°C° 0 mm 3 m/s 747 mmHg 78%
05:00 +4°C° 0 mm 3 m/s 747 mmHg 80%
06:00 +5°C° 0 mm 4 m/s 748 mmHg 74%
07:00 +7°C° 0 mm 4 m/s 748 mmHg 69%
08:00 +10°C° 0 mm 4 m/s 748 mmHg 64%
09:00 +12°C° 0 mm 4 m/s 748 mmHg 60%
10:00 +13°C° 0 mm 4 m/s 748 mmHg 57%
11:00 +15°C° 0 mm 4 m/s 749 mmHg 53%
12:00 +15°C° 0 mm 5 m/s 748 mmHg 51%
13:00 +16°C° 0 mm 5 m/s 748 mmHg 50%
14:00 +17°C° 0 mm 5 m/s 748 mmHg 49%
15:00 +16°C° 0 mm 5 m/s 748 mmHg 51%
16:00 +17°C° 0 mm 4 m/s 748 mmHg 54%
17:00 +17°C° 0 mm 4 m/s 748 mmHg 57%
18:00 +14°C° 0 mm 4 m/s 748 mmHg 64%
19:00 +12°C° 0 mm 4 m/s 748 mmHg 71%
20:00 +10°C° 0 mm 3 m/s 748 mmHg 79%
21:00 +10°C° 0 mm 3 m/s 748 mmHg 79%
22:00 +9°C° 0 mm 3 m/s 748 mmHg 79%
23:00 +7°C° 0 mm 4 m/s 748 mmHg 80%

11 Mai, Marţi

Timp Temperatura Precipitaţii Vânt Presiune Umiditate
00:00 +8°C° 0 mm 3 m/s 748 mmHg 80%
01:00 +7°C° 0 mm 3 m/s 748 mmHg 80%
02:00 +5°C° 0 mm 3 m/s 748 mmHg 80%
03:00 +5°C° 0 mm 3 m/s 748 mmHg 79%
04:00 +5°C° 0 mm 3 m/s 748 mmHg 79%
05:00 +5°C° 0 mm 3 m/s 748 mmHg 78%
06:00 +8°C° 0 mm 3 m/s 748 mmHg 72%
07:00 +10°C° 0 mm 4 m/s 748 mmHg 67%
08:00 +12°C° 0 mm 4 m/s 749 mmHg 61%
09:00 +13°C° 0 mm 5 m/s 748 mmHg 57%
10:00 +14°C° 0 mm 5 m/s 748 mmHg 52%
11:00 +16°C° 0 mm 5 m/s 748 mmHg 48%
12:00 +16°C° 0 mm 5 m/s 748 mmHg 47%
13:00 +17°C° 0 mm 5 m/s 748 mmHg 45%
14:00 +19°C° 0 mm 5 m/s 748 mmHg 44%
15:00 +18°C° 0 mm 4 m/s 748 mmHg 47%
16:00 +18°C° 0 mm 4 m/s 747 mmHg 51%
17:00 +18°C° 0 mm 4 m/s 747 mmHg 55%
18:00 +15°C° 0 mm 4 m/s 747 mmHg 63%
19:00 +13°C° 0 mm 3 m/s 747 mmHg 70%
20:00 +11°C° 0 mm 3 m/s 747 mmHg 78%
21:00 +10°C° 0 mm 3 m/s 747 mmHg 79%
22:00 +10°C° 0 mm 3 m/s 747 mmHg 80%
23:00 +9°C° 0 mm 3 m/s 747 mmHg 82%
Arată mai mult

Formular de consimțământ

Meteoprog și furnizorii noștri de servicii pot stoca și accesa date personale, precum cookies, identificatori de dispozitiv sau alte tehnologii similare pe dispozitivul dumneavoastră și procesa astfel de date pentru a personaliza conținutul și reclamele, dar și pentru a oferi caracteristici de social media și pentru a analiza traficul.

  • Stocarea și/sau accesarea informațiilor pe dispozitivul dumneavoastră

    Cookies, identificatori de dispozitiv sau alte informații pot fi stocate sau accesate pe dispozitiv în scopurile indicate mai sus.

  • Reclame și conținut personalizat, evaluarea reclamelor și a conținutului, informații despre audiențe și dezvoltarea produselor

    Reclamele și conținutul pot fi personalizate pe baza unui profil. Pot fi adăugate date suplimentare pentru a personaliza mai bine reclamele și conținutul. Performanța reclamelor și conținutului poate fi măsurată. Pot fi obținute informații despre utilizatorii care au văzut reclamele și conținutul. Aceste date pot fi utilizate pentru a dezvolta sau îmbunătăți experiența utilizatorilor, sistemele și software-ul.

Dând clic pe ‘Sunt de acord’, permiteți utilizarea cookie-urilor menționate, a identificatorilor de dispozitiv, balizelor web sau altor tehnologii similare. Setările pot fi modificate din browser-ul dispozitivului dumneavoastră.

În anumite scopuri, interesele legitime pot prima asupra consimțământului. Puteți citi mai multe informații în acest sens în Politica privind Confidențialitatea Datelor și Cookie.